QPF
0.00 0.00 0.00 0.00 0.00 0.00 0.00 0.00 0.00 0.00 0.00 0.00 0.00 0.00 0.00 0.00 0.00 0.00 0.01 0.01 0.00 0.00 0.00 0.00 0.00 0.01 0.02 0.02 0.02 0.03 0.05 0.08 0.08 0.07 0.05 0.04 0.04 0.04 0.03 0.04 0.06 0.05 0.02
0.00 0.00 0.00 0.00 0.00 0.00 0.00 0.00 0.00 0.00 0.00 0.00 0.00 0.00 0.00 0.00 0.00 0.00 0.00 0.00 0.00 0.00 0.00 0.00 0.00 0.00 0.01 0.02 0.02 0.02 0.04 0.06 0.08 0.09 0.07 0.03 0.03 0.04 0.04 0.04 0.07 0.07 0.05
0.00 0.00 0.00 0.00 0.00 0.00 0.00 0.00 0.00 0.00 0.00 0.00 0.00 0.00 0.00 0.00 0.00 0.00 0.00 0.00 0.00 0.00 0.00 0.00 0.00 0.00 0.01 0.01 0.02 0.03 0.04 0.05 0.07 0.09 0.07 0.04 0.02 0.03 0.04 0.04 0.06 0.08 0.07
0.00 0.00 0.00 0.00 0.00 0.00 0.00 0.00 0.00 0.00 0.00 0.00 0.00 0.00 0.00 0.00 0.00 0.00 0.00 0.00 0.00 0.00 0.00 0.00 0.00 0.00 0.01 0.01 0.02 0.03 0.02 0.03 0.05 0.07 0.05 0.03 0.02 0.03 0.03 0.04 0.04 0.06 0.07
0.00 0.00 0.00 0.00 0.00 0.00 0.00 0.00 0.00 0.00 0.00 0.00 0.00 0.00 0.00 0.00 0.00 0.00 0.00 0.00 0.00 0.00 0.00 0.00 0.00 0.00 0.00 0.01 0.01 0.02 0.02 0.02 0.04 0.07 0.06 0.02 0.02 0.02 0.02 0.04 0.04 0.05 0.05
0.00 0.00 0.00 0.00 0.00 0.00 0.00 0.00 0.00 0.00 0.00 0.00 0.00 0.00 0.00 0.00 0.00 0.00 0.00 0.00 0.00 0.00 0.00 0.00 0.00 0.00 0.00 0.00 0.00 0.01 0.01 0.02 0.03 0.05 0.07 0.03 0.02 0.02 0.03 0.03 0.04 0.04 0.03
0.00 0.00 0.00 0.00 0.00 0.00 0.00 0.00 0.00 0.00 0.00 0.00 0.00 0.00 0.00 0.00 0.00 0.00 0.00 0.00 0.00 0.00 0.00 0.01 0.01 0.00 0.00 0.00 0.00 0.00 0.01 0.01 0.02 0.04 0.06 0.04 0.03 0.02 0.03 0.03 0.03 0.04 0.04
0.00 0.00 0.00 0.00 0.00 0.00 0.00 0.00 0.00 0.00 0.00 0.00 0.00 0.00 0.00 0.00 0.00 0.00 0.00 0.00 0.00 0.00 0.00 0.01 0.01 0.01 0.00 0.00 0.00 0.01 0.01 0.01 0.01 0.02 0.04 0.04 0.03 0.03 0.02 0.02 0.03 0.03 0.03
0.00 0.00 0.00 0.00 0.00 0.00 0.00 0.00 0.00 0.00 0.00 0.00 0.00 0.00 0.00 0.00 0.00 0.00 0.00 0.00 0.00 0.00 0.00 0.01 0.01 0.01 0.00 0.00 0.00 0.00 0.00 0.00 0.01 0.01 0.02 0.02 0.02 0.02 0.02 0.02 0.03 0.02 0.02
0.00 0.00 0.00 0.00 0.00 0.00 0.00 0.00 0.00 0.00 0.00 0.00 0.00 0.01 0.01 0.00 0.00 0.00 0.00 0.00 0.00 0.00 0.01 0.01 0.01 0.01 0.01 0.01 0.00 0.01 0.01 0.00 0.00 0.00 0.01 0.01 0.01 0.01 0.01 0.02 0.03 0.03 0.03
0.00 0.00 0.00 0.00 0.00 0.00 0.00 0.00 0.00 0.00 0.00 0.00 0.00 0.01 0.01 0.01 0.00 0.00 0.00 0.01 0.01 0.01 0.01 0.01 0.01 0.01 0.02 0.01 0.01 0.01 0.01 0.01 0.01 0.01 0.01 0.01 0.00 0.01 0.01 0.02 0.02 0.03 0.04
0.00 0.00 0.00 0.00 0.00 0.00 0.00 0.00 0.00 0.00 0.00 0.00 0.01 0.01 0.01 0.01 0.01 0.01 0.01 0.01 0.02 0.02 0.01 0.02 0.02 0.03 0.03 0.02 0.01 0.01 0.01 0.00 0.00 0.01 0.01 0.01 0.01 0.01 0.01 0.01 0.02 0.02 0.03
0.00 0.00 0.00 0.00 0.00 0.00 0.00 0.00 0.00 0.00 0.00 0.00 0.01 0.01 0.01 0.01 0.01 0.01 0.01 0.02 0.02 0.03 0.02 0.03 0.03 0.04 0.04 0.02 0.02 0.01 0.01 0.01 0.00 0.01 0.01 0.01 0.02 0.02 0.01 0.02 0.02 0.02 0.02
0.00 0.00 0.00 0.00 0.00 0.00 0.00 0.00 0.00 0.00 0.00 0.00 0.01 0.01 0.02 0.02 0.01 0.02 0.02 0.02 0.03 0.04 0.04 0.03 0.04 0.03 0.03 0.02 0.02 0.02 0.02 0.01 0.01 0.01 0.01 0.01 0.02 0.02 0.02 0.03 0.02 0.03 0.04
0.00 0.00 0.00 0.00 0.00 0.00 0.00 0.00 0.00 0.00 0.00 0.00 0.01 0.01 0.02 0.02 0.02 0.03 0.03 0.03 0.04 0.05 0.06 0.05 0.04 0.03 0.03 0.02 0.03 0.03 0.03 0.02 0.02 0.01 0.01 0.01 0.01 0.02 0.02 0.02 0.03 0.03 0.03
0.00 0.00 0.00 0.00 0.00 0.00 0.00 0.00 0.00 0.00 0.00 0.00 0.00 0.01 0.01 0.02 0.02 0.02 0.02 0.03 0.04 0.06 0.07 0.06 0.05 0.05 0.04 0.03 0.04 0.04 0.04 0.03 0.03 0.02 0.01 0.01 0.01 0.02 0.02 0.02 0.02 0.03 0.03
0.00 0.00 0.00 0.00 0.00 0.00 0.00 0.00 0.00 0.00 0.00 0.00 0.00 0.00 0.01 0.02 0.02 0.02 0.02 0.02 0.02 0.04 0.06 0.06 0.06 0.06 0.05 0.05 0.06 0.06 0.06 0.06 0.05 0.04 0.03 0.02 0.02 0.02 0.02 0.02 0.02 0.02 0.02
0.00 0.00 0.00 0.00 0.00 0.00 0.00 0.00 0.00 0.00 0.00 0.00 0.00 0.01 0.01 0.02 0.02 0.02 0.02 0.02 0.03 0.03 0.04 0.04 0.05 0.06 0.07 0.07 0.08 0.09 0.08 0.08 0.08 0.07 0.05 0.03 0.02 0.02 0.02 0.01 0.01 0.01 0.02
0.00 0.00 0.00 0.00 0.00 0.00 0.00 0.00 0.00 0.01 0.01 0.01 0.01 0.01 0.01 0.02 0.03 0.03 0.02 0.03 0.03 0.04 0.04 0.04 0.05 0.07 0.08 0.09 0.10 0.11 0.12 0.11 0.09 0.09 0.07 0.05 0.03 0.02 0.02 0.01 0.01 0.01 0.02
0.00 0.00 0.00 0.00 0.00 0.00 0.00 0.01 0.01 0.01 0.01 0.02 0.02 0.02 0.02 0.02 0.03 0.03 0.03 0.03 0.03 0.04 0.05 0.05 0.07 0.09 0.10 0.12 0.13 0.14 0.15 0.15 0.13 0.11 0.09 0.06 0.04 0.02 0.01 0.01 0.01 0.01 0.02
0.00 0.00 0.00 0.00 0.00 0.00 0.01 0.01 0.01 0.01 0.01 0.01 0.02 0.02 0.03 0.03 0.03 0.03 0.03 0.04 0.04 0.05 0.07 0.08 0.10 0.12 0.13 0.15 0.18 0.18 0.18 0.18 0.16 0.14 0.11 0.08 0.05 0.03 0.02 0.01 0.01 0.02 0.02
0.00 0.00 0.00 0.00 0.00 0.00 0.01 0.00 0.00 0.00 0.01 0.01 0.02 0.02 0.03 0.04 0.04 0.04 0.04 0.05 0.06 0.07 0.08 0.10 0.12 0.14 0.15 0.16 0.19 0.22 0.22 0.21 0.20 0.17 0.13 0.10 0.07 0.04 0.03 0.02 0.01 0.02 0.02
0.00 0.00 0.00 0.00 0.00 0.00 0.00 0.01 0.01 0.01 0.01 0.02 0.02 0.03 0.03 0.04 0.04 0.05 0.05 0.06 0.06 0.07 0.09 0.10 0.12 0.14 0.15 0.16 0.19 0.22 0.23 0.23 0.23 0.21 0.17 0.13 0.10 0.07 0.04 0.03 0.02 0.02 0.02
0.00 0.00 0.00 0.00 0.01 0.01 0.01 0.01 0.01 0.01 0.01 0.02 0.02 0.03 0.03 0.03 0.04 0.04 0.05 0.06 0.06 0.07 0.08 0.09 0.10 0.12 0.14 0.16 0.18 0.20 0.21 0.22 0.24 0.25 0.21 0.16 0.12 0.08 0.06 0.04 0.04 0.03 0.02
0.00 0.00 0.01 0.01 0.01 0.01 0.01 0.01 0.01 0.01 0.01 0.01 0.02 0.02 0.02 0.03 0.03 0.04 0.05 0.06 0.07 0.07 0.07 0.08 0.09 0.11 0.13 0.15 0.17 0.19 0.21 0.22 0.23 0.23 0.21 0.18 0.14 0.10 0.07 0.04 0.03 0.04 0.04
0.00 0.00 0.01 0.01 0.01 0.01 0.01 0.01 0.01 0.01 0.01 0.01 0.01 0.02 0.03 0.04 0.04 0.05 0.06 0.07 0.08 0.07 0.07 0.08 0.09 0.10 0.11 0.12 0.14 0.16 0.21 0.22 0.22 0.22 0.21 0.18 0.15 0.12 0.10 0.07 0.05 0.04 0.04
MSLP
1014.43 1014.32 1014.24 1014.17 1014.07 1013.92 1013.72 1013.48 1013.22 1012.95 1012.71 1012.53 1012.42 1012.39 1012.43 1012.54 1012.68 1012.83 1012.98 1013.11 1013.22 1013.31 1013.38 1013.44 1013.50 1013.56 1013.62 1013.68 1013.73 1013.75 1013.76 1013.73 1013.68 1013.61 1013.53 1013.45 1013.39 1013.36 1013.37 1013.42 1013.51 1013.64 1013.80
1015.07 1014.93 1014.82 1014.71 1014.56 1014.37 1014.13 1013.85 1013.53 1013.21 1012.90 1012.65 1012.45 1012.33 1012.28 1012.29 1012.34 1012.41 1012.48 1012.56 1012.62 1012.68 1012.74 1012.80 1012.88 1012.97 1013.07 1013.18 1013.29 1013.39 1013.47 1013.52 1013.53 1013.51 1013.47 1013.42 1013.37 1013.34 1013.34 1013.37 1013.45 1013.56 1013.70
1015.78 1015.65 1015.53 1015.39 1015.22 1015.00 1014.72 1014.40 1014.04 1013.66 1013.30 1012.96 1012.68 1012.45 1012.28 1012.16 1012.09 1012.04 1012.01 1011.99 1011.98 1011.98 1012.00 1012.05 1012.13 1012.24 1012.39 1012.56 1012.74 1012.92 1013.08 1013.21 1013.30 1013.35 1013.36 1013.34 1013.31 1013.28 1013.26 1013.27 1013.32 1013.40 1013.52
1016.50 1016.40 1016.28 1016.14 1015.95 1015.71 1015.41 1015.06 1014.67 1014.25 1013.83 1013.43 1013.05 1012.72 1012.42 1012.17 1011.95 1011.77 1011.60 1011.47 1011.35 1011.27 1011.23 1011.24 1011.31 1011.43 1011.60 1011.81 1012.05 1012.30 1012.54 1012.75 1012.92 1013.04 1013.11 1013.14 1013.14 1013.12 1013.10 1013.10 1013.12 1013.18 1013.26
1017.16 1017.09 1016.98 1016.84 1016.64 1016.39 1016.08 1015.72 1015.31 1014.87 1014.41 1013.95 1013.51 1013.08 1012.67 1012.29 1011.94 1011.61 1011.31 1011.04 1010.81 1010.63 1010.51 1010.45 1010.47 1010.57 1010.74 1010.96 1011.23 1011.53 1011.82 1012.09 1012.33 1012.53 1012.67 1012.76 1012.80 1012.82 1012.83 1012.83 1012.85 1012.89 1012.96
1017.69 1017.63 1017.53 1017.38 1017.18 1016.92 1016.61 1016.25 1015.84 1015.40 1014.93 1014.45 1013.96 1013.46 1012.98 1012.50 1012.03 1011.58 1011.15 1010.76 1010.41 1010.12 1009.90 1009.76 1009.70 1009.74 1009.86 1010.06 1010.31 1010.61 1010.92 1011.24 1011.53 1011.78 1011.99 1012.15 1012.27 1012.35 1012.41 1012.45 1012.50 1012.56 1012.63
1018.01 1017.95 1017.85 1017.69 1017.48 1017.22 1016.91 1016.56 1016.17 1015.74 1015.29 1014.81 1014.31 1013.80 1013.27 1012.73 1012.19 1011.65 1011.12 1010.63 1010.17 1009.77 1009.45 1009.20 1009.05 1008.99 1009.03 1009.15 1009.35 1009.60 1009.89 1010.20 1010.52 1010.81 1011.09 1011.33 1011.53 1011.70 1011.85 1011.97 1012.09 1012.20 1012.31
1018.11 1018.04 1017.92 1017.74 1017.52 1017.25 1016.95 1016.61 1016.25 1015.86 1015.44 1014.99 1014.52 1014.02 1013.49 1012.93 1012.36 1011.78 1011.19 1010.63 1010.09 1009.61 1009.18 1008.83 1008.56 1008.39 1008.30 1008.31 1008.40 1008.56 1008.79 1009.06 1009.36 1009.68 1010.00 1010.32 1010.62 1010.90 1011.16 1011.39 1011.60 1011.80 1011.98
1018.03 1017.92 1017.77 1017.57 1017.33 1017.05 1016.75 1016.43 1016.10 1015.75 1015.37 1014.98 1014.55 1014.09 1013.59 1013.05 1012.49 1011.90 1011.30 1010.70 1010.12 1009.57 1009.07 1008.62 1008.24 1007.93 1007.71 1007.58 1007.53 1007.57 1007.69 1007.89 1008.15 1008.46 1008.81 1009.20 1009.59 1009.98 1010.36 1010.72 1011.06 1011.36 1011.62
1017.82 1017.68 1017.50 1017.26 1017.00 1016.71 1016.40 1016.09 1015.78 1015.46 1015.13 1014.78 1014.40 1013.99 1013.54 1013.05 1012.52 1011.96 1011.38 1010.78 1010.18 1009.60 1009.04 1008.51 1008.03 1007.61 1007.25 1006.97 1006.77 1006.67 1006.67 1006.76 1006.95 1007.23 1007.60 1008.02 1008.49 1008.99 1009.49 1009.98 1010.43 1010.85 1011.22
1017.56 1017.40 1017.18 1016.91 1016.62 1016.31 1015.99 1015.67 1015.36 1015.06 1014.75 1014.44 1014.10 1013.74 1013.34 1012.89 1012.41 1011.89 1011.35 1010.77 1010.18 1009.59 1009.00 1008.42 1007.87 1007.35 1006.87 1006.46 1006.12 1005.88 1005.74 1005.72 1005.83 1006.06 1006.40 1006.85 1007.37 1007.95 1008.56 1009.16 1009.73 1010.26 1010.72
1017.32 1017.13 1016.89 1016.60 1016.27 1015.93 1015.59 1015.25 1014.92 1014.61 1014.31 1014.00 1013.68 1013.34 1012.97 1012.57 1012.13 1011.65 1011.14 1010.60 1010.04 1009.46 1008.87 1008.27 1007.67 1007.08 1006.51 1005.99 1005.54 1005.17 1004.91 1004.78 1004.79 1004.95 1005.26 1005.70 1006.25 1006.88 1007.56 1008.26 1008.93 1009.56 1010.12
1017.13 1016.93 1016.66 1016.34 1015.99 1015.61 1015.23 1014.86 1014.50 1014.16 1013.83 1013.50 1013.17 1012.83 1012.46 1012.07 1011.65 1011.20 1010.73 1010.22 1009.69 1009.14 1008.56 1007.96 1007.35 1006.73 1006.11 1005.52 1004.97 1004.50 1004.14 1003.91 1003.82 1003.91 1004.16 1004.58 1005.13 1005.79 1006.52 1007.28 1008.04 1008.75 1009.40
1016.97 1016.76 1016.48 1016.14 1015.76 1015.34 1014.92 1014.50 1014.09 1013.70 1013.32 1012.95 1012.59 1012.21 1011.83 1011.43 1011.01 1010.56 1010.10 1009.62 1009.12 1008.59 1008.04 1007.46 1006.86 1006.23 1005.59 1004.96 1004.36 1003.82 1003.37 1003.05 1002.89 1002.89 1003.08 1003.45 1003.99 1004.65 1005.41 1006.22 1007.04 1007.84 1008.57
1016.79 1016.58 1016.29 1015.93 1015.51 1015.06 1014.59 1014.12 1013.66 1013.22 1012.78 1012.36 1011.94 1011.52 1011.10 1010.66 1010.22 1009.76 1009.30 1008.82 1008.33 1007.83 1007.31 1006.75 1006.17 1005.56 1004.92 1004.28 1003.65 1003.06 1002.56 1002.17 1001.93 1001.86 1001.98 1002.30 1002.80 1003.45 1004.23 1005.08 1005.96 1006.83 1007.66
1016.54 1016.31 1016.01 1015.63 1015.19 1014.71 1014.20 1013.69 1013.18 1012.69 1012.20 1011.73 1011.26 1010.78 1010.31 1009.83 1009.34 1008.86 1008.37 1007.89 1007.40 1006.91 1006.40 1005.87 1005.31 1004.72 1004.09 1003.45 1002.81 1002.20 1001.65 1001.21 1000.90 1000.77 1000.83 1001.09 1001.55 1002.19 1002.97 1003.86 1004.81 1005.76 1006.69
1016.16 1015.92 1015.60 1015.20 1014.74 1014.24 1013.71 1013.17 1012.64 1012.11 1011.59 1011.07 1010.56 1010.04 1009.52 1008.99 1008.46 1007.93 1007.41 1006.89 1006.39 1005.88 1005.38 1004.85 1004.31 1003.73 1003.12 1002.49 1001.84 1001.21 1000.64 1000.15 999.79 999.60 999.60 999.81 1000.24 1000.87 1001.66 1002.59 1003.60 1004.65 1005.68
1015.65 1015.39 1015.05 1014.63 1014.16 1013.65 1013.12 1012.57 1012.03 1011.49 1010.96 1010.42 1009.88 1009.33 1008.76 1008.19 1007.61 1007.03 1006.46 1005.90 1005.36 1004.82 1004.29 1003.76 1003.21 1002.64 1002.03 1001.40 1000.75 1000.11 999.51 998.99 998.59 998.35 998.31 998.48 998.88 999.50 1000.31 1001.28 1002.36 1003.51 1004.67
1015.03 1014.75 1014.39 1013.97 1013.49 1012.98 1012.46 1011.93 1011.40 1010.87 1010.34 1009.81 1009.25 1008.68 1008.08 1007.46 1006.83 1006.20 1005.56 1004.94 1004.34 1003.75 1003.18 1002.61 1002.04 1001.45 1000.83 1000.19 999.54 998.89 998.28 997.74 997.31 997.04 996.97 997.12 997.50 998.12 998.96 999.97 1001.13 1002.37 1003.64
1014.37 1014.07 1013.69 1013.26 1012.80 1012.31 1011.81 1011.30 1010.80 1010.30 1009.79 1009.26 1008.70 1008.11 1007.48 1006.82 1006.13 1005.42 1004.72 1004.02 1003.33 1002.67 1002.03 1001.40 1000.78 1000.16 999.52 998.87 998.21 997.56 996.95 996.41 995.98 995.70 995.62 995.77 996.15 996.78 997.65 998.71 999.93 1001.26 1002.63
1013.73 1013.40 1013.02 1012.60 1012.15 1011.68 1011.21 1010.74 1010.27 1009.79 1009.30 1008.78 1008.22 1007.61 1006.94 1006.23 1005.47 1004.69 1003.89 1003.09 1002.30 1001.54 1000.81 1000.11 999.42 998.74 998.08 997.41 996.75 996.11 995.52 995.00 994.60 994.35 994.29 994.46 994.88 995.53 996.43 997.53 998.81 1000.20 1001.66
1013.14 1012.81 1012.43 1012.02 1011.59 1011.15 1010.71 1010.27 1009.82 1009.37 1008.89 1008.36 1007.79 1007.14 1006.43 1005.65 1004.81 1003.93 1003.02 1002.11 1001.21 1000.33 999.49 998.68 997.92 997.19 996.48 995.81 995.16 994.55 994.01 993.55 993.21 993.02 993.03 993.25 993.71 994.42 995.36 996.50 997.81 999.25 1000.76
1012.62 1012.29 1011.93 1011.53 1011.12 1010.71 1010.29 1009.87 1009.44 1008.99 1008.50 1007.97 1007.36 1006.67 1005.90 1005.05 1004.12 1003.13 1002.10 1001.05 1000.02 999.01 998.04 997.13 996.28 995.48 994.74 994.06 993.45 992.90 992.43 992.06 991.83 991.75 991.85 992.17 992.71 993.48 994.47 995.65 996.99 998.45 999.98
1012.14 1011.82 1011.47 1011.10 1010.71 1010.31 1009.90 1009.49 1009.06 1008.61 1008.11 1007.55 1006.90 1006.17 1005.33 1004.39 1003.37 1002.27 1001.12 999.94 998.76 997.61 996.52 995.49 994.55 993.69 992.92 992.25 991.67 991.20 990.83 990.59 990.50 990.56 990.81 991.25 991.90 992.75 993.80 995.02 996.38 997.85 999.37
1011.64 1011.35 1011.02 1010.66 1010.28 1009.88 1009.48 1009.07 1008.64 1008.17 1007.65 1007.07 1006.39 1005.61 1004.72 1003.71 1002.60 1001.40 1000.14 998.84 997.53 996.25 995.03 993.89 992.85 991.93 991.13 990.47 989.95 989.56 989.32 989.22 989.28 989.51 989.92 990.51 991.29 992.24 993.36 994.62 996.00 997.45 998.95
1011.09 1010.81 1010.50 1010.15 1009.77 1009.39 1008.98 1008.57 1008.13 1007.66 1007.13 1006.53 1005.84 1005.04 1004.11 1003.06 1001.90 1000.62 999.27 997.87 996.45 995.06 993.72 992.48 991.36 990.37 989.55 988.90 988.42 988.12 987.99 988.04 988.27 988.67 989.24 989.99 990.90 991.96 993.15 994.45 995.84 997.28 998.74
Thickness
5735 5734 5732 5730 5729 5727 5724 5722 5721 5720 5718 5717 5715 5713 5711 5709 5707 5703 5700 5698 5695 5694 5693 5691 5689 5689 5687 5687 5686 5685 5684 5682 5678 5682 5688 5692 5693 5695 5697 5700 5703 5705 5707
5732 5731 5729 5727 5725 5723 5722 5721 5720 5718 5717 5716 5714 5712 5710 5708 5706 5703 5700 5698 5695 5693 5692 5690 5689 5689 5686 5685 5684 5684 5683 5684 5681 5679 5683 5687 5689 5692 5694 5696 5699 5701 5703
5728 5726 5724 5723 5721 5719 5718 5718 5717 5716 5715 5714 5712 5710 5708 5706 5704 5703 5700 5698 5696 5693 5692 5689 5688 5687 5684 5683 5683 5682 5682 5683 5682 5680 5680 5683 5686 5689 5690 5692 5695 5697 5699
5724 5721 5718 5717 5716 5714 5714 5713 5712 5712 5711 5710 5709 5707 5706 5704 5702 5700 5698 5696 5695 5694 5692 5690 5687 5685 5683 5682 5681 5680 5680 5680 5679 5678 5677 5679 5681 5684 5685 5684 5686 5690 5693
5718 5715 5713 5712 5711 5709 5708 5707 5706 5706 5706 5705 5704 5703 5702 5700 5698 5695 5693 5691 5690 5690 5690 5689 5687 5686 5684 5682 5680 5678 5677 5676 5675 5674 5674 5675 5676 5677 5678 5681 5681 5683 5686
5713 5709 5708 5706 5704 5702 5701 5700 5699 5699 5699 5698 5697 5696 5695 5695 5693 5690 5687 5685 5684 5684 5684 5685 5685 5684 5683 5681 5679 5677 5675 5673 5672 5671 5671 5671 5673 5675 5676 5677 5676 5676 5676
5705 5703 5700 5698 5696 5695 5694 5692 5691 5691 5691 5690 5690 5689 5688 5687 5686 5684 5681 5679 5678 5678 5679 5679 5680 5682 5680 5678 5676 5675 5673 5673 5672 5669 5669 5670 5672 5674 5673 5673 5673 5673 5674
5697 5695 5693 5691 5689 5688 5686 5684 5684 5684 5683 5683 5682 5682 5680 5680 5679 5677 5674 5672 5671 5672 5673 5673 5673 5675 5676 5674 5672 5671 5670 5669 5669 5669 5669 5670 5672 5673 5673 5671 5670 5670 5672
5689 5686 5685 5683 5681 5679 5678 5677 5677 5676 5675 5675 5675 5673 5672 5672 5671 5668 5666 5663 5662 5663 5665 5667 5667 5668 5670 5670 5667 5666 5665 5666 5667 5667 5667 5668 5668 5669 5669 5666 5664 5662 5662
5680 5678 5677 5676 5673 5671 5670 5669 5668 5667 5666 5666 5665 5664 5663 5662 5662 5659 5656 5653 5652 5653 5655 5658 5659 5660 5661 5661 5660 5661 5660 5661 5661 5661 5661 5662 5663 5663 5663 5663 5661 5658 5657
5673 5670 5668 5667 5665 5664 5662 5660 5658 5657 5655 5654 5654 5653 5652 5651 5650 5648 5644 5641 5640 5640 5642 5645 5648 5650 5651 5652 5652 5655 5657 5657 5657 5656 5656 5656 5656 5657 5657 5658 5658 5657 5655
5664 5661 5659 5658 5657 5655 5651 5649 5646 5643 5641 5639 5638 5638 5637 5637 5635 5633 5631 5629 5628 5627 5629 5632 5635 5638 5640 5643 5644 5647 5650 5651 5650 5650 5649 5650 5651 5651 5652 5653 5653 5654 5654
5654 5651 5649 5648 5645 5643 5639 5635 5631 5628 5625 5623 5620 5619 5619 5618 5618 5617 5615 5614 5613 5612 5615 5619 5622 5624 5627 5631 5635 5638 5640 5641 5642 5643 5644 5646 5648 5649 5648 5647 5647 5647 5648
5643 5641 5638 5636 5633 5629 5624 5620 5616 5612 5608 5605 5602 5600 5599 5599 5599 5598 5598 5597 5597 5597 5600 5604 5607 5611 5613 5618 5624 5627 5631 5634 5636 5638 5640 5642 5642 5642 5642 5642 5639 5639 5638
5632 5629 5626 5622 5618 5614 5610 5605 5601 5597 5592 5587 5584 5581 5580 5580 5581 5580 5577 5579 5580 5581 5582 5587 5591 5595 5600 5606 5611 5616 5620 5624 5628 5632 5633 5634 5634 5635 5635 5636 5634 5633 5632
5620 5616 5612 5607 5603 5599 5595 5593 5590 5584 5581 5575 5571 5566 5566 5565 5566 5565 5564 5563 5564 5565 5566 5571 5577 5582 5588 5594 5599 5604 5610 5615 5620 5624 5626 5628 5628 5628 5628 5628 5628 5627 5626
5607 5603 5598 5593 5588 5584 5580 5576 5573 5572 5568 5563 5558 5554 5551 5550 5550 5549 5548 5549 5550 5551 5552 5558 5564 5570 5576 5583 5588 5593 5600 5607 5611 5615 5619 5621 5623 5623 5622 5621 5621 5620 5620
5595 5590 5584 5578 5573 5569 5564 5560 5557 5553 5551 5548 5545 5541 5538 5537 5536 5535 5534 5534 5537 5540 5541 5546 5552 5558 5563 5570 5577 5582 5589 5596 5601 5606 5610 5614 5616 5617 5617 5616 5615 5615 5615
5582 5576 5571 5565 5560 5555 5551 5546 5542 5538 5534 5531 5529 5527 5525 5523 5523 5522 5521 5520 5522 5526 5529 5534 5539 5544 5550 5557 5564 5571 5577 5584 5591 5596 5601 5605 5609 5610 5611 5611 5610 5609 5609
5570 5565 5559 5552 5547 5542 5537 5533 5528 5523 5519 5515 5513 5511 5510 5508 5508 5508 5508 5508 5510 5513 5517 5522 5527 5532 5538 5544 5551 5558 5566 5572 5581 5587 5593 5597 5601 5604 5605 5605 5604 5603 5603
5557 5552 5546 5540 5534 5529 5524 5519 5514 5510 5506 5503 5500 5499 5496 5494 5494 5495 5497 5498 5500 5502 5506 5510 5516 5521 5526 5533 5540 5547 5555 5563 5571 5577 5584 5589 5593 5597 5599 5599 5599 5598 5597
5544 5538 5532 5526 5521 5516 5511 5507 5502 5497 5494 5491 5489 5488 5486 5484 5483 5484 5487 5489 5490 5493 5496 5500 5506 5511 5516 5522 5529 5537 5545 5553 5561 5568 5576 5582 5586 5589 5592 5592 5592 5591 5590
5531 5525 5519 5514 5508 5504 5499 5495 5489 5485 5481 5478 5476 5476 5475 5474 5474 5474 5476 5479 5481 5484 5488 5491 5496 5502 5508 5513 5520 5527 5536 5544 5552 5559 5567 5573 5577 5582 5584 5585 5585 5585 5583
5516 5510 5505 5500 5495 5491 5486 5482 5478 5474 5470 5468 5466 5465 5464 5464 5464 5465 5466 5469 5472 5475 5479 5483 5488 5494 5500 5505 5512 5519 5528 5536 5544 5550 5557 5563 5568 5573 5576 5577 5578 5578 5577
5503 5497 5492 5487 5483 5479 5474 5470 5466 5463 5460 5457 5456 5455 5454 5454 5455 5456 5457 5459 5463 5466 5471 5475 5480 5486 5492 5498 5505 5512 5521 5528 5535 5542 5548 5553 5558 5564 5567 5569 5570 5569 5568
5491 5486 5481 5476 5472 5467 5463 5459 5456 5453 5450 5448 5447 5445 5445 5445 5446 5448 5449 5451 5455 5459 5464 5469 5474 5480 5486 5491 5498 5505 5513 5521 5529 5535 5540 5545 5550 5555 5558 5560 5562 5562 5560